Volver al catálogo

ONEWEB-0440

ActivoComunicacionesPO
NORAD 50503·PAYLOAD·🇬🇧 United Kingdom

Lanzado Dec 27, 2021 desde Baikonur Cosmodrome

Loading…

Próximos Pases (próximas 24 horas)

TLE

ActualizadoSource: CelesTrak SupGP

Época: Sep 14, 2026, 23:26 UTC

1 50503C 21132AL  26257.97653196  .00001566  00000+0  39773-2 0  2575
2 50503  87.9161 317.6176 0002218  93.7845 355.2310 13.18683442    17

Sigue ONEWEB-0440 en tiempo real con AllMySat

Download on the App Store